Погода в Аксе

Погода в Аксе : погода сейчас, прогноз погоды и архив. Всё, что Вы хотите узнать о погоде в Аксе!

Хотите узнать прогноз погоды в Аксе? Тогда Вам сюда: Погода в Аксе

Поиск расширенной информации на нашем сайте:

Другие новости

Новости СМИ2

Главная страница сайта

Новости сайта

02.10.2013

Напоминаем, что на нашем новом сайте вы можете получить высокодетализированные прогнозы погоды по пунктам России, СНГ и мира (включающие важные для авиации метеовеличины, такие как направление и скорость ветра, видимость, явления погоды, количество и форма облачности, нижняя и верхняя граница облачности), а также ознакомиться с разнообразными материалами по авиационной метеорологии и подборкой полезных ссылок на эту тему.

Сайт Метеоцентр.Азия посвящён разработке технологий оптимизации авиаметеорологического обслуживания, включая проектирование и перспективное создание нескольких автоматизированных авиаметеорологических систем:
- система выпуска высокодетальных прогностических карт явлений погоды для нижнего воздушного пространства по России и ближнему зарубежью;
- система верификации прогнозов TAF (выпускаемых синоптиками официальных АМСГ РФ и ближнего зарубежья) и AUTOTAF (выпускаемых сайтом Метеоцентр.Азия) - выявление ошибок, онлайн-сопоставление с фактической погодой METAR, автоматическое внесение коррективов в прогнозы при резком отклонении фактической погоды от прогноза, подсчёт оправдываемости прогнозов по элементам и в целом;
- система обработки, анализа и отображения авиаметеорологической информации для применения провайдерами метеорологической информации.

Рекомендуем: очень хочется рисовать в Manga Studio.

Погода в Аксе - сегодня

Время (UTC), дата Ветер
(°,м/с) 
Видим.   Явления Облачность Т
(°С)
Тd
(°С)
f(%) Тe
(°С)
Pmin
(гПа)
dP
(гПа)
Po
(мм)
O2
(г/м3)
Тmin Tmax R s Состояние
почвы
21 25.05.17 210 (ЮЗ) 20000 м    1/0 верхняя 
[Ci sp]
+4.8 +2.2 83 +6  1005.6  -0.3  690  273           
00 26.05.17 210 (ЮЗ) 20000 м    3/0 верхняя 
[Ci fib]
+16.1 +5 48 +16  1001.5  -0.5  690  262  +4.3        сухая 
03 26.05.17 230 (ЮЗ) 20000 м    1/0 верхняя 
[Ci fib]
+28.6 +3.3 20 +29  996.6  -1.4  689  251           
06 26.05.17 080 (В) 20000 м    6/3 1000 м кучево-дожд., средняя, верхняя 
[Cb cap|Ac lent|Ci fib]
+35.1 -0.1 11 +35  992.4  -2.3  687  245           
09 26.05.17 тихо () {24}  20000 м    9/9 1000 м кучево-дожд. 
[Cb cap]
+31.7 +1.5 15 +32  993.1  0.1  687  248           
12 26.05.17 030 (СВ) 1{12}  20000 м    5/1 1000 м кучево-дожд., верхняя 
[Cb cap|Ci fib]
+26.8 +4.9 25 +27  995  0.5  687  251    +36.4       
15 26.05.17 090 (В) н/о    5/5 1000 м кучево-дожд. 
[Cb cap]
+17.8 +5.6 45 +19  999.4  1.8  689  259           
18 26.05.17 080 (В) н/о    3/3 1000 м 
[Sc]
+16.7 +7.4 54 +18  1000.8  0.9  689  260           
21 26.05.17 300 (СЗ) 20000 м  в посл. час ливневой дождь  9/9 1000 м кучево-дожд. 
[Cb cap]
+17.3 +6.4 49 +18  1003.4  2.6  691  261           
00 27.05.17 320 (СЗ) 20000 м  {ливн. осадки}  8/3 1000 м кучево-дожд., средняя, верхняя 
[Cb cap|Ac trans|Ci fib]
+17.7 +6.4 47 +17  1003.9  0.5  692  261  +13.2    0.3    сухая 
12 27.05.17 310 (СЗ) 8-13{18}  20000 м    1/1 1000 м 
[Sc]
+16.9 -2.3 27 +16  1007.7  2.3  694  263    +24.3       
15 27.05.17 320 (СЗ) 5{14}  н/о    ясно 
+11.5 -3.2 36 +10  1012.4  2.9  696  269           
18 27.05.17 290 (З) 5-10{20}  н/о    ясно 
+5.9 -3 53 +4  1017.7  3.2  699  276           
21 27.05.17 300 (СЗ) 5-11{15}  20000 м    ясно 
+4.9 -4.4 51 +3  1018.9  0.8  699  277           
00 28.05.17 310 (СЗ) 11-17{17}  20000 м    1/1 1000 м 
[Cu med, cong]
+7.2 -4.9 42 +4  1018.3  0.1  699  275  +4.8        сухая 
06 28.05.17 300 (СЗ) 9-15{16}  20000 м    ясно 
+14.9 -10.4 16 +14  1013.1  -1.9  697  267           
12 28.05.17 320 (СЗ) 6-10{12}  20000 м    8/6 1000 м кучево-дожд., верхняя 
[Cb cap|Ci sp]
+13.1 -4.2 30 +12  1012.4  0.6  696  268    +16.7       
15 28.05.17 220 (ЮЗ) 3{10}  н/о    10/0 верхняя 
[Cu Sc|Ci sp]
+7.6 -2.8 48 +7  1013  -1  696  273           
18 28.05.17 060 (СВ) н/о    8/6 1000 м верхняя 
[Cu Sc|Ci sp]
+7.4 -1.8 52 +8  1013.1  0.1  696  273           
21 28.05.17 тихо ()   20000 м    5/3 1000 м верхняя 
[Cu med, cong|Ci sp]
+0.9 -3.1 75 +1  1014.1  -1.1  695  279           
00 29.05.17 260 (З) 20000 м    8/5 1000 м средняя, верхняя 
[Cu Sc|Ac lent|Ci fib]
+11.1 -2.3 39 +11  1009.9  -0.8  694  269  +0.9        сухая 
15 29.05.17 180 (Ю) н/о    ясно 
+1.7 -8 48 +1  1012.3  0.8  694  279           
18 29.05.17 тихо ()   н/о    ясно 
-3.3 -8.3 68 -3  1014.2  0.2  694  284           
21 29.05.17 тихо ()   20000 м    ясно 
-4.6 -10.1 65 -5  1014.4  -0.3  694  285           
03 30.05.17 020 (С) 20000 м    1/0 верхняя 
[Ci fib]
+14.8 -8.8 19 +15  1005.8  -1.7  692  265           
Время (UTC), дата Ветер
(°,м/с) 
Видим.   Явления Облачность Т
(°С)
Тd
(°С)
f(%) Тe
(°С)
Pmin
(гПа)
dP
(гПа)
Po
(мм)
O2
(г/м3)
Тmin Tmax R s Состояние
почвы

Для получения пояснительной информации подведите курсор к названию столбца.

ПОГОДА в Аксе - архив

Всё, что Вы хотите узнать о погоде в Аксе - удобно и подробно!

Выберите нужную дату (начиная с 1 января 2015* года) и нажмите кнопку "Найти".
Будут отображены архивные сводки погоды по пункту Акса, начиная с указанной даты.


Отображать данные в формате CSV (для использования в таблицах Excel)


Внимание! Наш архив погоды предназначен исключительно для личного некоммерческого использования в познавательных целях. Если Вам необходимы официальные справки о состоянии погоды (для производственных, юридических, коммерческих и т.п. целей), обращайтесь в органы Росгидромета.

*Примечание: данная дата относится к архиву по метеостанциям СССР (Россия, СНГ, Балтия).
Архив по метеостанциям Зарубежной Европы и Азии (кроме Китая) хранится 10 дней, по другим регионам земного шара (Китай, Африка, Америка, Австралия, Океания) - 1 день.

Акса - район местоположения метеостанции


Название, широта, долгота, высота метеостанции:
Акса 50.3°ш. 113.3°д. 732 м над ур. моря [Российская Федерация]

Дополнительная информация

В oтличие oт бoльшинства пoгoдных сайтoв мы публикуем пoдрoбную метеoинфoрмацию в детальнoм прoфессиoнальнoм фoрмате.

Характеристики температуры и влажнoсти вoздуха измеряются на высoте 2 м в тени вдали oт зданий и деревьев.
Скoрoсть ветра измеряется на высoте 10 м (на урoвне рoста челoвека скoрoсть ветра ниже в 1.5-2 раза). Если метеoстанция нахoдится в гoрoде или в лесу, тo скoрoсть ветра занижена на 2-4 м/с пo сравнению с oткрытым местoм. Скoрoсть ветра над акватoриями крупных рек и oзёр, а также на вершинах хoлмoв на 2-5 м/с выше, чем в oбычных услoвиях.
Атмoсфернoе давление в разных тoчках местнoсти мoжет значительнo oтличаться oт давления на метеoстанции, в зависимoсти oт услoвий рельефа (при пoдъёме на 10 м давление пoнижается примернo на 1 мм рт.ст.).